[[{"header":{"parameterUnit":"m.s-1","parameterCategory":1,"la1":30.2992,"la2":30.254,"lo1":-89.0895,"lo2":-89.0443,"dy":0.0025,"dx":0.0025,"nx":19,"ny":19,"refTime":"2026-04-14T21:00:00:Z","depth":0,"parameterNumber":2,"parameterNumberName":"U-component_of_WINDS"},"data":[0,0,0,-2.3045,-2.3045,-2.3027,-2.3027,-2.301,-2.3009,0,0,0,0,0,0,0,0,0,0,0,-2.3054,-2.3054,-2.3045,-2.3045,-2.3027,-2.3027,-2.301,-2.3009,0,0,0,0,0,0,0,0,0,0,0,-2.3054,-2.3054,-2.3054,-2.3045,-2.3027,-2.3027,-2.301,-2.3021,0,0,0,0,0,0,0,0,0,0,-2.3038,-2.3049,-2.3054,-2.3054,-2.3045,-2.3027,-2.3027,-2.3022,-2.302,-2.302,0,-2.3021,0,-2.3015,-2.3009,-2.3009,0,0,0,-2.3042,-2.305,-2.3042,-2.3054,-2.3045,-2.3027,-2.3034,-2.3021,-2.302,-2.3019,-2.3021,-2.302,-2.3015,-2.3009,-2.3009,-2.3017,-2.3017,0,0,-2.3043,-2.3052,-2.3043,-2.3041,-2.3045,-2.3035,-2.3034,-2.302,-2.3022,-2.302,-2.3019,-2.3014,-2.3009,-2.3008,-2.3017,-2.3017,0,0,0,-2.3048,-2.3053,-2.3046,-2.3042,-2.3039,-2.3035,-2.3033,-2.3023,-2.302,-2.3019,-2.3014,-2.3008,-2.3008,-2.3017,-2.3017,-2.3034,0,0,0,-2.3048,-2.3056,-2.3046,-2.3051,-2.3039,-2.3031,-2.3037,-2.3021,-2.3019,-2.3014,-2.3008,-2.3008,-2.3017,-2.3017,-2.3033,-2.304,0,0,0,-2.3054,-2.3056,-2.3055,-2.3052,-2.3045,-2.3031,-2.3027,-2.302,-2.3016,-2.3009,-2.3008,-2.3016,-2.3017,-2.3032,-2.3039,-2.3045,0,0,0,-2.3062,-2.3069,-2.3055,-2.3062,-2.3045,-2.3042,-2.3027,-2.3024,-2.3019,-2.3008,-2.3017,-2.3017,-2.3032,-2.3038,-2.3045,-2.3052,-2.3056,0,0,-2.3076,-2.3072,-2.3075,-2.3062,-2.3063,-2.3044,-2.3048,-2.3035,-2.3025,-2.3021,-2.3021,-2.3033,-2.3039,-2.3045,-2.3077,-2.308,0,0,0,-2.3082,-2.3085,-2.3083,-2.308,-2.3071,-2.3064,-2.305,-2.3045,-2.3041,-2.3025,-2.3038,-2.304,-2.3044,-2.3047,-2.305,-2.3052,-2.3019,-2.3019,-2.3019,-2.3114,-2.3103,-2.3108,-2.3096,-2.3093,-2.3079,-2.3076,-2.3067,-2.3056,-2.306,-2.3057,-2.3078,-2.3082,-2.3084,-2.3087,-2.3061,-2.3061,-2.3061,-2.3061,-2.3134,-2.3135,-2.3123,-2.3122,-2.3111,-2.3111,-2.3099,-2.3091,-2.309,-2.3078,-2.3081,-2.3069,-2.3088,-2.309,-2.3062,-2.3062,-2.3062,-2.3062,-2.3062,-2.3153,-2.3152,-2.3147,-2.3143,-2.314,-2.3128,-2.3127,-2.3117,-2.3107,-2.3109,-2.3106,-2.3106,-2.3104,-2.3109,-2.3109,-2.3109,-2.3109,-2.3109,-2.3109,-2.3174,-2.3168,-2.3169,-2.3162,-2.316,-2.3155,-2.3143,-2.314,-2.3134,-2.3126,-2.3126,-2.3115,-2.3093,-2.3087,-2.311,-2.311,-2.311,-2.311,-2.311,-2.3197,-2.319,-2.3192,-2.3189,-2.3181,-2.318,-2.3168,-2.3163,-2.3159,-2.316,-2.3149,-2.3134,-2.3128,-2.3125,-2.312,-2.3151,-2.3151,-2.3151,-2.3151,-2.3212,-2.3209,-2.3209,-2.3206,-2.3202,-2.3192,-2.3194,-2.3186,-2.3176,-2.3173,-2.3167,-2.316,-2.3159,-2.3153,-2.315,-2.3146,-2.3182,-2.3182,-2.3182,-2.3226,-2.3222,-2.3226,-2.3217,-2.321,-2.3204,-2.3207,-2.3204,-2.3191,-2.3183,-2.3171,-2.3169,-2.3158,-2.3155,-2.3144,-2.314,-2.3131,0,0]},{"header":{"parameterUnit":"m.s-1","parameterCategory":1,"la1":30.2992,"la2":30.254,"lo1":-89.0895,"lo2":-89.0443,"dy":0.0025,"dx":0.0025,"nx":19,"ny":19,"refTime":"2026-04-14T21:00:00:Z","depth":0,"parameterNumber":3,"parameterNumberName":"V-component_of_WINDS"},"data":[0,0,0,4.8389,4.8389,4.8378,4.8378,4.8358,4.8357,0,0,0,0,0,0,0,0,0,0,0,4.839,4.839,4.8389,4.8389,4.8378,4.8378,4.8358,4.8357,0,0,0,0,0,0,0,0,0,0,0,4.839,4.839,4.839,4.8389,4.8378,4.8378,4.8358,4.8368,0,0,0,0,0,0,0,0,0,0,4.838,4.8379,4.839,4.839,4.8389,4.8378,4.8378,4.8368,4.8367,4.8361,0,4.8356,0,4.8356,4.8356,4.8356,0,0,0,4.839,4.838,4.8379,4.839,4.8389,4.8378,4.8383,4.8368,4.8366,4.8359,4.8355,4.8355,4.8356,4.8356,4.8356,4.8319,4.8319,0,0,4.8391,4.8387,4.838,4.8378,4.8381,4.8383,4.8383,4.8367,4.8362,4.8355,4.8354,4.8356,4.8356,4.8355,4.8319,4.8319,0,0,0,4.8392,4.8387,4.8387,4.8379,4.8377,4.8383,4.8382,4.8363,4.8363,4.8354,4.8356,4.8355,4.8355,4.8319,4.8319,4.8305,0,0,0,4.8392,4.8388,4.8387,4.8384,4.8378,4.837,4.8378,4.8364,4.8363,4.8356,4.8355,4.8355,4.832,4.8319,4.8306,4.8298,0,0,0,4.8392,4.8388,4.8386,4.8384,4.8379,4.837,4.837,4.8364,4.8363,4.8356,4.8355,4.832,4.8319,4.8307,4.83,4.8288,0,0,0,4.839,4.8372,4.8385,4.8366,4.838,4.8362,4.837,4.8357,4.8349,4.8355,4.832,4.8319,4.8307,4.8301,4.8289,4.8278,4.8273,0,0,4.8365,4.8368,4.8357,4.8369,4.8349,4.8364,4.8342,4.8337,4.8339,4.8325,4.8324,4.8306,4.83,4.8288,4.8246,4.8242,0,0,0,4.8348,4.834,4.8335,4.8329,4.8326,4.8323,4.8323,4.8321,4.831,4.8332,4.8298,4.8295,4.8288,4.8283,4.828,4.8274,4.8317,4.8317,4.8317,4.8306,4.8311,4.8293,4.8298,4.8291,4.8292,4.8287,4.8285,4.829,4.8283,4.8278,4.8252,4.8246,4.8244,4.8238,4.8273,4.8273,4.8273,4.8273,4.8269,4.8259,4.8269,4.8256,4.8261,4.8249,4.825,4.8255,4.8244,4.8256,4.825,4.8262,4.8239,4.8234,4.8272,4.8272,4.8272,4.8272,4.8272,4.8242,4.8238,4.8238,4.823,4.8223,4.8228,4.8218,4.8223,4.8227,4.8222,4.8218,4.8218,4.8219,4.822,4.822,4.822,4.822,4.822,4.8219,4.8213,4.8214,4.8205,4.8203,4.82,4.8197,4.8199,4.8196,4.8193,4.8198,4.8198,4.8205,4.8236,4.8244,4.8218,4.8218,4.8219,4.8219,4.8219,4.8173,4.8184,4.8171,4.8168,4.8166,4.8159,4.8167,4.816,4.8159,4.8154,4.8162,4.8185,4.8189,4.8191,4.8198,4.8161,4.8161,4.8161,4.8161,4.815,4.8153,4.8142,4.8138,4.8134,4.814,4.8125,4.8127,4.813,4.8129,4.8136,4.8145,4.8147,4.8149,4.8153,4.8159,4.8114,4.8114,4.8114,4.8126,4.813,4.8116,4.8121,4.812,4.8119,4.8106,4.8099,4.8105,4.8112,4.8129,4.8131,4.8146,4.815,4.8156,4.8162,4.8173,0,0]}]]